Regional Weather Roundup
Issued by NWS

Home | Current Version | Previous Version | Text Only | Print | Product List | Glossary Off
Versions: 1 2 3 4 5 6 7 8 9 10 11 12 13 14 15 16 17 18 19 20 21 22 23 24 25 26 27 28 29 30 31 32 33 34 35 36 37 38 39 40 41 42 43 44 45 46 47 48 49 50

000
ASUS43 KLOT 281610
RWRIL

ILLINOIS REGIONAL WEATHER ROUNDUP
NATIONAL WEATHER SERVICE CHICAGO/ROMEOVILLE IL
1100 AM CDT MON JUL 28 2014

NOTE: "FAIR" INDICATES FEW OR NO CLOUDS BELOW 12,000 FEET WITH NO
SIGNIFICANT WEATHER AND/OR OBSTRUCTIONS TO VISIBILITY.

* THESE STATIONS ARE NOT UNDER NWS QUALITY CONTROL. THEY ALSO MAY NOT
  REPORT WEATHER SUCH AS PRECIPITATION OR FOG.

ILZ001-002-007-009-015-016-024-281700-
NORTHWEST ILLINOIS

CITY           SKY/WX    TMP DP  RH WIND       PRES   REMARKS
MOLINE         MOSUNNY   68  49  50 N14       30.14S
STERLING*      MOSUNNY   70  50  49 NE12G22   30.13S
SAVANNA*       SUNNY     70  46  42 N15       30.13F
$$

ILZ003-004-008-010-011-017-018-281700-
NORTH CENTRAL ILLINOIS

CITY           SKY/WX    TMP DP  RH WIND       PRES   REMARKS
ROCKFORD       MOSUNNY   68  46  45 N21G26    30.13S
FREEPORT*      SUNNY     63  50  62 N10G18    30.15S
ROCHELLE*      SUNNY     66  49  53 N16       30.12R
DE KALB*       SUNNY     64  49  58 N18       30.11R
PERU*          SUNNY     67  50  55 N16       30.11S
$$

ILZ005-006-012>014-019>023-281700-
NORTHEAST ILLINOIS

CITY           SKY/WX    TMP DP  RH WIND       PRES   REMARKS
CHICAGO-OHARE  MOSUNNY   65  43  44 N14G22    30.08R
CHICAGO-MIDWAY MOSUNNY   68  50  52 N13       30.07R
AURORA         SUNNY     66  49  54 N15G24    30.09R
LANSING*       SUNNY     64  50  61 N16G23    30.07R
JOLIET*        SUNNY     66  49  53 N7        30.09R
WAUKEGAN       SUNNY     62  44  51 N16G23    30.08R
DUPAGE AIRPORT SUNNY     67  49  52 N14       30.08R
KANKAKEE*      MOSUNNY   67  56  67 NW7       30.07R
WHEELING       SUNNY     66  45  46 N13G24    30.10R
MORRIS*        SUNNY     68  53  58 N5        30.08R
ROMEOVILLE*    SUNNY     66  50  55 N9G16     30.08R
NORTHERLY ISL    N/A     62  49  62 N16         N/A
$$

LMZ740>746-281700-
SOUTHERN LAKE MICHIGAN

STATION/POSITION SKY/WX   TEMP    WIND        PRES    VSBY  WAVE
                          AIR SEA DIR/SP/G                  HT/PER
                          (F)     (DEG/KT/KT) (MB)    (MI)  (FT/S)
SOUTHERN BUOY              56 59  340/ 23/ 27 1017.5R         8/ 7
WAUKEGAN HARBOR            58      20/ 23/ 26   N/A
HARRISON CRIB              58     350/ 25/ 28   N/A
BURNHAM HARBOR             62     360/ 18/ 20   N/A
CALUMET HARBOR             61     340/ 19/ 23 1017.2R
MICHIGAN CITY              59     330/ 25/ 29   N/A
MICHIGAN CITY 6N           60 67  350/ 19/ 25   N/A           8/ 8
ST. JOSEPH                 58 66  350/ 19/ 25   N/A           9/ 6
$$

ILZ025>027-034>036-040-047-049-050-058-095>099-281700-
WEST-CENTRAL ILLINOIS

CITY           SKY/WX    TMP DP  RH WIND       PRES   REMARKS
QUINCY         CLOUDY    68  60  75 N7        30.15S
GALESBURG*     MOSUNNY   69  54  57 N16G22    30.15R
MACOMB*        MOSUNNY   68  53  58 N14       30.17S
JACKSONVILLE*  MOSUNNY   71  58  65 N10       30.14R
PITTSFIELD*    CLOUDY    71  59  66 NW8       30.15R
$$

ILZ028>032-037-038-041>044-048-051>054-059>061-281700-
CENTRAL ILLINOIS

CITY           SKY/WX    TMP DP  RH WIND       PRES   REMARKS
PONTIAC        MOSUNNY   68  55  64 NW10      30.08S
DECATUR        MOSUNNY   71  56  58 NW13      30.09R
PEORIA         MOSUNNY   69  50  50 N9G20     30.12R
LACON*         MOSUNNY   66  50  56 N13       30.11R
LINCOLN*       MOSUNNY   72  54  53 N9        30.08S
SPRINGFIELD    MOSUNNY   72  57  59 N15       30.11R
TAYLORVILLE    MOSUNNY   68  59  73 N13G18    30.10S
$$

ILZ033-039-045-046-055>057-062-063-281700-
EAST-CENTRAL ILLINOIS

CITY           SKY/WX    TMP DP  RH WIND       PRES   REMARKS
CHAMPAIGN      MOSUNNY   66  57  72 N14       30.06S
DANVILLE*      MOSUNNY   67  58  71 N9G16     30.03R
RANTOUL*       MOSUNNY   71  55  58 NW10      30.07S
MATTOON        SUNNY     70  57  63 N14       30.06S
PARIS*         SUNNY     69  59  68 N8        30.06R
$$

ILZ079-100>102-281700-
SOUTHWEST ILLINOIS

CITY           SKY/WX    TMP DP  RH WIND       PRES   REMARKS
ALTON          PTSUNNY   72  64  78 NW7       30.11S
BELLEVILLE     PTSUNNY   75  64  69 NW9       30.09S
CAHOKIA*       MOSUNNY   76  61  59 N12       30.11R
SPARTA*        PTSUNNY   72  63  73 N10       30.10R
$$

ILZ064>066-069>071-074>076-080>082-084>086-088>090-092>094-281700-
SOUTH-CENTRAL ILLINOIS

CITY           SKY/WX    TMP DP  RH WIND       PRES   REMARKS
CARBONDALE     MOSUNNY   75  61  61 VRB6      30.08S
CAIRO*         MOSUNNY   79  65  63 W5        30.08S HX  80
EFFINGHAM*     SUNNY     72  55  54 N10       30.08R
MARION         PTSUNNY   75  63  64 N9        30.09R
MT. VERNON     PTSUNNY   72  59  64 N5        30.08S
CENTRALIA*     PTSUNNY   78  60  54 NW10      30.08S
SALEM*         PTSUNNY  N/A N/A N/A NW12      30.08S
METROPOLIS*    MOSUNNY   76  58  52 CALM      30.07R
$$

ILZ067-068-072-073-078-083-087-091-281700-
SOUTHEAST ILLINOIS

CITY           SKY/WX    TMP DP  RH WIND       PRES   REMARKS
LAWRENCEVILLE  MOSUNNY   74  60  61 NW14      30.05R
FLORA*         SUNNY     71  60  67 NW10      30.07S
FAIRFIELD*     PTSUNNY   73  64  73 N7        30.06S
HARRISBURG*    PTSUNNY   72  62  69 NW8       30.08R
ROBINSON*      MOSUNNY   73  61  65 NW10G17   30.06R
$$

ABBREVIATIONS USED IN REMARKS
   TC - TEMPERATURE IN CELSIUS
  WCI - WIND CHILL INDEX
   HX - HEAT INDEX
  VSB - VISIBILITY
$$



USA.gov is the U.S. government's official web portal to all federal, state and local government web resources and services.